Location: Arbon
(43.0005°N, 0.7472°E)
Time: 11:02:02
(UTC+00:00)

Cosmos 1725 Rocket - Pass Details

Date: 22 April 2026
Orbit: 960 x 990 km, 82.9° (Epoch: 15 May)

Event Time Altitude Azimuth Distance (km) Brightness Sun altitude
Exits shadow 23:08:51 61° 319° (NW) 1,113 4.3 -33.5°
Drops below altitude 10° 23:14:22 10° 3° (N) 2,752 7.1 -33.7°
Sets 23:16:55 0° 6° (N) 3,701 8.0 -33.8°
